Osceola, WI

1:42 AM CDT on April 29, 2017 (GMT -0500)
Simenstad Municipal

Weather History for KOEO - December, 2012

Change the Weather History Date:

Monday, December 31, 2012

  Actual Average (KANE) Record (KANE)
Temperature  
Mean Temperature 6 °F -  
Max Temperature 17 °F 22 °F 42 °F (2006)
Min Temperature -9 °F 8 °F -11 °F (2008)
Degree Days  
Heating Degree Days 59    
Moisture  
Dew Point 3 °F    
Average Humidity 73    
Maximum Humidity 93    
Minimum Humidity 57    
Precipitation  
Precipitation 0.00 in - - ()
Sea Level Pressure  
Sea Level Pressure 30.16 in    
Wind  
Wind Speed 8 mph (WNW)    
Max Wind Speed 14 mph    
Max Gust Speed 20 mph    
Visibility 10 miles    
Events Snow    
Averages and records for this station are not official NWS values.
T = Trace of Precipitation, MM = Missing Value Source: NWS Daily Summary

Daily Weather History Graph

Daily Weather History Graph

Search for Another Location

Airport or City:

Trip Planner

Search our weather history database for the weather conditions in past years. The results will help you decide how hot, cold, wet, or windy it might be!

Date:

Astronomy

Dec. 31, 2012 Rise Set
Actual Time 7:50 AM CST 4:38 PM CST
Civil Twilight 7:16 AM CST 5:12 PM CST
Nautical Twilight 6:38 AM CST 5:49 PM CST
Astronomical Twilight 6:03 AM CST 6:25 PM CST
Moon 8:19 PM CST (12/31) 9:22 AM CST (12/31)
Length of Visible Light 9h 55m
Length of Day
8h 48m
Waning Gibbous, 90% of the Moon is Illuminated
Dec 31
Waning Gibbous
Jan 4
Last Quarter
Jan 11
New
Jan 18
First Quarter
Jan 26
Full

Hourly Weather History & Observations

Time (CST) Temp. Windchill Dew Point Humidity Pressure Visibility Wind Dir Wind Speed Gust Speed Precip Events Conditions
12:15 AM 17.6 °F 6.4 °F 14.0 °F 86% 29.96 in 10.0 mi WNW 9.2 mph - N/A   Clear
12:35 AM 17.6 °F 7.3 °F 12.2 °F 79% 29.98 in 10.0 mi WNW 8.1 mph - N/A   Mostly Cloudy
12:55 AM 17.6 °F 7.3 °F 12.2 °F 79% 29.98 in 10.0 mi WNW 8.1 mph - N/A   Overcast
1:15 AM 15.8 °F 3.4 °F 12.2 °F 86% 29.99 in 10.0 mi WNW 10.4 mph - N/A   Overcast
1:35 AM 14.0 °F 1.2 °F 12.2 °F 93% 30.00 in 10.0 mi WNW 10.4 mph - N/A   Overcast
1:55 AM 15.8 °F 4.2 °F 12.2 °F 86% 30.01 in 10.0 mi WNW 9.2 mph - N/A   Overcast
2:15 AM 15.8 °F 5.1 °F 12.2 °F 86% 30.02 in 10.0 mi WNW 8.1 mph - N/A   Overcast
2:35 AM 17.6 °F 8.2 °F 12.2 °F 79% 30.03 in 10.0 mi WNW 6.9 mph - N/A   Overcast
2:55 AM 17.6 °F 7.3 °F 14.0 °F 86% 30.04 in 10.0 mi WNW 8.1 mph - N/A   Overcast
3:15 AM 17.6 °F 9.3 °F 14.0 °F 86% 30.06 in 10.0 mi West 5.8 mph - N/A   Overcast
3:35 AM 17.6 °F 8.2 °F 14.0 °F 86% 30.07 in 10.0 mi WNW 6.9 mph - N/A Snow Light Snow
3:55 AM 17.6 °F 5.7 °F 12.2 °F 79% 30.08 in 10.0 mi NW 10.4 mph - N/A   Overcast
4:15 AM 17.6 °F 3.7 °F 10.4 °F 73% 30.08 in 10.0 mi NW 13.8 mph 19.6 mph N/A   Overcast
4:35 AM 15.8 °F 5.1 °F 8.6 °F 73% 30.08 in 10.0 mi NW 8.1 mph - N/A   Mostly Cloudy
4:55 AM 14.0 °F 2.9 °F 8.6 °F 79% 30.09 in 10.0 mi NW 8.1 mph - N/A   Scattered Clouds
5:15 AM 14.0 °F 1.2 °F 8.6 °F 79% 30.09 in 10.0 mi NW 10.4 mph 18.4 mph N/A   Scattered Clouds
5:35 AM 14.0 °F 2.9 °F 8.6 °F 79% 30.09 in 10.0 mi NW 8.1 mph - N/A   Clear
5:55 AM 14.0 °F 2.0 °F 6.8 °F 73% 30.10 in 10.0 mi WNW 9.2 mph - N/A   Clear
6:15 AM 12.2 °F 2.9 °F 6.8 °F 79% 30.12 in 10.0 mi West 5.8 mph - N/A   Clear
6:35 AM 10.4 °F -0.4 °F 5.0 °F 79% 30.14 in 10.0 mi WSW 6.9 mph - N/A   Clear
6:55 AM 10.4 °F -1.5 °F 5.0 °F 79% 30.14 in 10.0 mi West 8.1 mph - N/A   Clear
7:15 AM 10.4 °F -0.4 °F 5.0 °F 79% 30.14 in 10.0 mi West 6.9 mph - N/A   Clear
7:35 AM 10.4 °F 0.8 °F 5.0 °F 79% 30.14 in 10.0 mi WNW 5.8 mph - N/A   Clear
7:55 AM 8.6 °F -2.6 °F 5.0 °F 85% 30.13 in 10.0 mi WNW 6.9 mph - N/A   Clear
8:15 AM 8.6 °F -3.7 °F 3.2 °F 79% 30.14 in 10.0 mi WNW 8.1 mph - N/A   Clear
8:35 AM 8.6 °F -2.6 °F 3.2 °F 79% 30.15 in 10.0 mi WNW 6.9 mph - N/A   Clear
8:55 AM 10.4 °F -1.5 °F 3.2 °F 73% 30.16 in 10.0 mi WNW 8.1 mph - N/A   Clear
9:15 AM 10.4 °F 2.2 °F 3.2 °F 73% 30.17 in 10.0 mi NW 4.6 mph - N/A   Scattered Clouds
9:35 AM 10.4 °F -0.4 °F 3.2 °F 73% 30.18 in 10.0 mi NNW 6.9 mph - N/A   Mostly Cloudy
9:55 AM 10.4 °F -1.5 °F 3.2 °F 73% 30.19 in 10.0 mi NW 8.1 mph - N/A   Overcast
10:15 AM 10.4 °F -3.3 °F 3.2 °F 73% 30.20 in 10.0 mi NW 10.4 mph - N/A   Overcast
10:35 AM 10.4 °F -2.4 °F 3.2 °F 73% 30.20 in 10.0 mi NW 9.2 mph - N/A   Scattered Clouds
10:55 AM 10.4 °F -4.8 °F 3.2 °F 73% 30.20 in 10.0 mi NW 12.7 mph - N/A   Clear
11:15 AM 10.4 °F -3.3 °F 3.2 °F 73% 30.19 in 10.0 mi NW 10.4 mph - N/A   Clear
11:35 AM 10.4 °F -3.3 °F 1.4 °F 67% 30.18 in 10.0 mi NW 10.4 mph - N/A   Clear
11:55 AM 10.4 °F -4.1 °F 3.2 °F 73% 30.17 in 10.0 mi WNW 11.5 mph - N/A   Clear
12:15 PM 10.4 °F -2.4 °F 1.4 °F 67% 30.17 in 10.0 mi NW 9.2 mph - N/A   Clear
12:35 PM 12.2 °F 0.7 °F 1.4 °F 62% 30.17 in 10.0 mi NW 8.1 mph - N/A   Clear
12:55 PM 12.2 °F -0.2 °F 1.4 °F 62% 30.17 in 10.0 mi NW 9.2 mph - N/A   Clear
1:15 PM 12.2 °F -1.0 °F 1.4 °F 62% 30.17 in 10.0 mi WNW 10.4 mph - N/A   Clear
1:35 PM 12.2 °F -0.2 °F 1.4 °F 62% 30.17 in 10.0 mi WNW 9.2 mph - N/A   Clear
1:55 PM 12.2 °F -0.2 °F 1.4 °F 62% 30.18 in 10.0 mi WNW 9.2 mph - N/A   Clear
2:15 PM 12.2 °F 0.7 °F 1.4 °F 62% 30.18 in 10.0 mi NW 8.1 mph - N/A   Clear
2:35 PM 12.2 °F 1.7 °F 1.4 °F 62% 30.19 in 10.0 mi West 6.9 mph - N/A   Clear
2:55 PM 12.2 °F 1.7 °F 1.4 °F 62% 30.19 in 10.0 mi NW 6.9 mph - N/A   Clear
3:15 PM 12.2 °F 1.7 °F -0.4 °F 57% 30.20 in 10.0 mi NW 6.9 mph - N/A   Clear
3:35 PM 12.2 °F 0.7 °F -0.4 °F 57% 30.20 in 10.0 mi WNW 8.1 mph - N/A   Clear
3:55 PM 12.2 °F 2.9 °F -0.4 °F 57% 30.21 in 10.0 mi NW 5.8 mph - N/A   Clear
4:15 PM 10.4 °F -0.4 °F -0.4 °F 62% 30.21 in 10.0 mi WNW 6.9 mph - N/A   Clear
4:35 PM 10.4 °F -1.5 °F -0.4 °F 62% 30.22 in 10.0 mi West 8.1 mph - N/A   Clear
4:55 PM 8.6 °F -2.6 °F -0.4 °F 67% 30.22 in 10.0 mi WNW 6.9 mph - N/A   Clear
5:15 PM 8.6 °F -3.7 °F -2.2 °F 62% 30.22 in 10.0 mi WNW 8.1 mph - N/A   Clear
5:35 PM 8.6 °F -2.6 °F -2.2 °F 62% 30.22 in 10.0 mi NW 6.9 mph - N/A   Clear
5:55 PM 8.6 °F -2.6 °F -2.2 °F 62% 30.22 in 10.0 mi NW 6.9 mph - N/A   Clear
6:15 PM 6.8 °F -3.5 °F -2.2 °F 67% 30.22 in 10.0 mi NW 5.8 mph - N/A   Clear
6:35 PM 6.8 °F -5.9 °F -2.2 °F 67% 30.22 in 10.0 mi NW 8.1 mph - N/A   Clear
6:55 PM 6.8 °F -3.5 °F -2.2 °F 67% 30.23 in 10.0 mi NW 5.8 mph - N/A   Clear
7:15 PM 5.0 °F -4.1 °F -4.0 °F 66% 30.24 in 10.0 mi NW 4.6 mph - N/A   Clear
7:35 PM 5.0 °F -5.6 °F -4.0 °F 66% 30.24 in 10.0 mi NW 5.8 mph - N/A   Clear
7:55 PM 5.0 °F -5.6 °F -4.0 °F 66% 30.24 in 10.0 mi NW 5.8 mph - N/A   Clear
8:15 PM 5.0 °F -6.9 °F -4.0 °F 66% 30.25 in 10.0 mi NNW 6.9 mph - N/A   Clear
8:35 PM 3.2 °F -6.2 °F -4.0 °F 72% 30.25 in 10.0 mi NNW 4.6 mph - N/A   Clear
9:15 PM 1.4 °F - -5.8 °F 72% 30.25 in 10.0 mi Calm Calm - N/A   Clear
9:35 PM 1.4 °F - -5.8 °F 72% 30.25 in 10.0 mi Calm Calm - N/A   Clear
10:15 PM -4.0 °F - -7.6 °F 85% 30.26 in 10.0 mi Calm Calm - N/A   Clear
10:35 PM -2.2 °F - -7.6 °F 78% 30.26 in 10.0 mi Calm Calm - N/A   Clear
10:55 PM -5.8 °F - -9.4 °F 84% 30.27 in 10.0 mi Calm Calm - N/A   Clear
11:15 PM -5.8 °F - -9.4 °F 84% 30.27 in 10.0 mi Calm Calm - N/A   Clear
11:35 PM -5.8 °F - -9.4 °F 84% 30.28 in 10.0 mi Calm Calm - N/A   Clear
11:55 PM -9.4 °F -18.6 °F -13.0 °F 84% 30.28 in 10.0 mi WSW 3.5 mph - N/A   Clear